Weather Roundup
Issued by NWS Corpus Christi, TX

Home | Current Version | Previous Version | Text Only | Print | Product List | Glossary On
Versions: 1 2 3 4 5 6 7 8 9 10 11 12 13 14 15 16 17 18 19 20 21 22 23 24 25 26 27 28 29 30 31 32 33 34 35 36 37 38 39 40 41 42 43 44 45 46 47 48 49 50
000
ASUS44 KCRP 222010
HRRCRP

SOUTH TEXAS REGIONAL WEATHER ROUNDUP
NATIONAL WEATHER SERVICE CORPUS CHRISTI TX
200 PM CST SUN JAN 22 2017


TXZ229>244-222100-
...CORPUS CHRISTI AREA OBSERVATIONS...

CITY           SKY/WX    TMP DP  RH WIND       PRES   REMARKS
CORPUS CHRISTI SUNNY     77  27  15 NW35G47   29.79F
NAS CORPUS CHR SUNNY     75  50  41 NW25G32   29.77F
ROCKPORT       SUNNY     75  37  25 NW20G33   29.76R
KINGSVILLE NAS MOSUNNY   77  26  15 NW33G48   29.81F
ALICE          MOSUNNY   76  22  13 NW32G44   29.82F
ORANGE GROVE   SUNNY     76  26  15 NW26G44   29.81F
FALFURRIAS     SUNNY     77  15   9 NW28G43   29.83F
$$

...VICTORIA AREA OBSERVATIONS...

CITY           SKY/WX    TMP DP  RH WIND       PRES   REMARKS
VICTORIA       SUNNY     72  42  34 NW31G44   29.73S
BEEVILLE       FAIR      75  31  20 NW24G41   29.80S
PLEASANTON     SUNNY     74  29  19 NW25G36   29.82F
SAN ANTONIO    SUNNY     71  36  27 NW24G39   29.81S
$$

...LAREDO AREA OBSERVATIONS...

CITY           SKY/WX    TMP DP  RH WIND       PRES   REMARKS
LAREDO         SUNNY     76  19  11 NW35G43   29.90F
COTULLA        SUNNY     75  22  13 NW28G44   29.87F
DEL RIO        NOT AVBL
MCALLEN        SUNNY     85  23  10 NW22G33   29.84F
HEBBRONVILLE   SUNNY     73  18  12 NW24G36   29.87F
$$

...OTHER TEXAS OBSERVATIONS...

CITY           SKY/WX    TMP DP  RH WIND       PRES   REMARKS
BROWNSVILLE    LGT RAIN  82  24  12 NW22G36   29.83F
HOUSTON        MOSUNNY   67  45  45 NW24G41   29.62R
COL. STATION   MOSUNNY   64  45  49 NW29G38   29.70R
AUSTIN         MOSUNNY   67  41  38 NW24G45   29.78R
WACO           PTSUNNY   63  44  50 NW22G33   29.73S
FORT WORTH     PTSUNNY   64  44  48 N29G40    29.66S
WICHITA FALLS  MOSUNNY   62  34  35 NW30G39   29.78S
LUBBOCK        MOSUNNY   59  26  28 NW22G29   29.93F
EL PASO        MOSUNNY   51  21  30 SW3       30.14F
$$

...MARINE OBSERVATIONS...

STATION/POSITION TIME  SKY/WX   TEMP    WIND        PRES    VSBY  WAVE   SWELL
                                AIR SEA DIR/SP/G                  HT/PER HT/PER
                 (UTC)          (F)     (DEG/KT/KT) (MB)    (MI)  (FT/S) (FT/S)
PORT ARANSAS     2000            72 62  290/ 26/ 32 1008.1S
BUOY 90 E PORT A 1850            68 72  290/ 29/ 37 1004.9         10/ 7
BUOY 45 SE BAFFI 1850            70     290/ 27/ 31 1008.2          9/ 7
BUOY 200 E PT IS 1850            71 74  290/ 29/ 35 1006.4         14/ 9   7/16
BUOY 15 E GALVES 1850            65 65  290/ 29/ 35 1001.3          7/ 7   2/10
$$



USA.gov is the U.S. government's official web portal to all federal, state and local government web resources and services.